Regional Weather Roundup
Issued by NWS

Home | Current Version | Previous Version | Graphics & Text | Print | Product List | Glossary Off
Versions: 1 2 3 4 5 6 7 8 9 10 11 12 13 14 15 16 17 18 19 20 21 22 23 24 25 26 27 28 29 30 31 32 33 34 35 36 37 38 39 40 41 42 43 44 45 46 47 48 49 50

000
ASUS43 KMKX 231621
RWRWI

WISCONSIN REGIONAL WEATHER ROUNDUP
NATIONAL WEATHER SERVICE MILWAUKEE/SULLIVAN WI
1100 AM CDT WED APR 23 2014

NOTE: "FAIR" INDICATES FEW OR NO CLOUDS BELOW 12,000 FEET WITH NO
SIGNIFICANT WEATHER AND/OR OBSTRUCTIONS TO VISIBILITY.

WIZ001-002-006>008-014>016-023>028-231700-
NORTHWEST WISCONSIN

CITY           SKY/WX    TMP DP  RH WIND       PRES   REMARKS
SUPERIOR ARPT  PTSUNNY   41  30  63 E8        30.14F
ASHLAND        CLOUDY    43  29  57 N5        30.16R
HAYWARD        PTSUNNY   48  24  39 S13       30.13S
SIREN          CLOUDY    47  26  43 SE8       30.11F
RICE LAKE      CLOUDY    46  27  46 SE12      30.15R
LADYSMITH      PTSUNNY   48  27  43 SE5       30.16R
EAU CLAIRE     CLOUDY    47  25  42 SE10      30.14R
MENOMONIE      CLOUDY    47  27  45 SE13      30.14R
NEW RICHMOND   CLOUDY    46  26  46 S13       30.12R
OSCEOLA        CLOUDY    47  28  46 SE15      30.14R
$$

WIZ003>005-009-010-017-018-231700-
NORTH CENTRAL WISCONSIN

CITY           SKY/WX    TMP DP  RH WIND       PRES   REMARKS
WOODRUFF       PTSUNNY   49  27  41 E5        30.13S
RHINELANDER    PTSUNNY   45  24  43 E9        30.14R
EAGLE RIVER    MOSUNNY   46  19  34 E8        30.12F
LAND O LAKES   MOSUNNY   46  23  40 SE6       30.13F
PHILLIPS       CLOUDY    45  25  45 SE7       30.13S
TOMAHAWK       CLOUDY    45  23  42 CALM      30.14S
MEDFORD        PTSUNNY   43  25  48 E10       30.14S
MERRILL        CLOUDY    45  25  45 S3        30.15S
$$

WIZ029-030-035-036-043>047-231700-
CENTRAL WISCONSIN

CITY           SKY/WX    TMP DP  RH WIND       PRES   REMARKS
WAUSAU         PTSUNNY   45  24  43 E7        30.14S
MOSINEE        SUNNY     43  27  52 SE8       30.16F
MARSHFIELD     PTSUNNY   46  27  47 SE9       30.14F
STEVENS POINT  MOSUNNY   43  22  44 SE7       30.16F
WAUPACA        MOSUNNY   46  25  42 SE5       30.19S
WAUTOMA        MOSUNNY   47  22  37 SE8       30.18S
WISC RAPIDS    MOSUNNY   47  21  35 E8        30.17F
CAMP DOUGLAS   PTSUNNY   48  27  43 E7        30.15F
$$

WIZ011>013-019>022-031-037>040-048>050-231700-
NORTHEAST WISCONSIN

CITY           SKY/WX    TMP DP  RH WIND       PRES   REMARKS
ANTIGO         PTSUNNY   42  23  47 S6        30.16R
STURGEON BAY   SUNNY     43  25  49 N9        30.20R
GREEN BAY      PTSUNNY   43  24  47 E10G20    30.19S
MANITOWOC      MOSUNNY   44  24  45 VRB6      30.19S
APPLETON       PTSUNNY   43  23  45 NE7       30.19R
CLINTONVILLE   PTSUNNY   45  23  42 CALM      30.19R
OSHKOSH        MOSUNNY   44  26  49 NE6       30.19R
$$

WIZ032>034-041-042-053>061-231700-
SOUTHWEST WISCONSIN

CITY           SKY/WX    TMP DP  RH WIND       PRES   REMARKS
LA CROSSE      CLOUDY    50  28  42 S12       30.13F
SPARTA         PTSUNNY   50  23  34 SE9       30.15S
VIROQUA        FAIR      47  28  47 SE9       30.13F
BOSCOBEL       PTSUNNY   49  27  42 VRB6      30.16F
PRAIRIE DU CHI CLOUDY    47  27  46 E9        30.15F
PLATTEVILLE    FAIR      46  29  51 E6        30.17S
$$

WIZ056-057-062-063-064-067-068-231700-
SOUTH CENTRAL WISCONSIN

CITY           SKY/WX    TMP DP  RH WIND       PRES   REMARKS
BARABOO/DELLS  MOSUNNY   47  25  42 E6        30.16S
LONE ROCK      MOSUNNY   48  26  42 E7        30.16F
WATERTOWN      MOSUNNY   47  29  49 E5        30.16S
MADISON        PTSUNNY   46  24  42 SE6       30.17S
MIDDLETON      FAIR      48  24  38 SE5       30.17S
MONROE         SUNNY     47  28  46 CALM      30.15F
JANESVILLE     SUNNY    N/A N/A N/A E10       30.16F
$$

WIZ051-052-058>065-066-070>072-231700-
SOUTHEAST WISCONSIN

CITY           SKY/WX    TMP DP  RH WIND       PRES   REMARKS
MILWAUKEE      PTSUNNY   43  28  55 NE10      30.19S
WAUKESHA       NOT AVBL
MILWAUKEE/TIMM SUNNY     45  21  39 E6        30.19S
RACINE         SUNNY     44  28  53 NE8       30.19F
BURLINGTON     SUNNY     45  26  47 E9        30.17S
KENOSHA        SUNNY     44  26  49 E10       30.18F
FOND DU LAC    MOSUNNY   45  26  47 NE6       30.17F
SHEBOYGAN      MOSUNNY   43  24  47 E7        30.19R
WEST BEND      MOSUNNY   45  25  45 NE6       30.17F
JUNEAU         MOSUNNY   46  22  37 E5        30.18S
$$

LSZ147-162-231700-
LAKE SUPERIOR

STATION/POSITION TIME  TEMP    WIND        PRES    WAVE
                       AIR SEA DIR/SP/G            HT/PER
                 (UTC) (F)     (DEG/KT/KT) (MB)    (FT/S)
DEVILS ISLAND    1600   40     120/  4/  4 1021.8S
PORT WING        1500   32     320/  3/  3 1021.0S
SAXON HARBOR     1540           CALM  /  2 1020.7F
$$

LMZ867-665-643>646-231700-
LAKE MICHIGAN

STATION/POSITION TIME  TEMP    WIND        PRES    WAVE
                       AIR SEA DIR/SP/G            HT/PER
                 (UTC) (F)     (DEG/KT/KT) (MB)    (FT/S)
NORTHPORT PIER   1500   33     310/  7/  9 1022.7R
SISTER BAY       1509   38     350/ 12/ 13   N/A
KEWAUNEE LAKESHO 1500   40      60/  6/  8 1022.9S
SHEBOYGAN LAKESH 1600   36      30/  9/ 10 1023.3R
PORT WASHINGTON  1540   40      50/  7/ 10 1023.0R
MILWAUKEE LAKESH 1600   37      40/ 10/ 11   N/A
KENOSHA   LAKESH 1600   37      40/  9/ 10   N/A
$$

TC  - TEMPERATURE IN CELSIUS
VSB - VISIBILITY IN STATUTE MILES
WCI - WIND CHILL INDEX
HX  - HEAT INDEX




USA.gov is the U.S. government's official web portal to all federal, state and local government web resources and services.